Regional Weather Roundup
Issued by NWS

Home | Current Version | Previous Version | Text Only | Print | Product List | Glossary Off
Versions: 1 2 3 4 5 6 7 8 9 10 11 12 13 14 15 16 17 18 19 20 21 22 23 24 25 26 27 28 29 30 31 32 33 34 35 36 37 38 39 40 41 42 43 44 45 46 47 48 49 50

000
ASUS43 KFSD 050302
RWRSD

WEATHER ROUNDUP FOR SOUTH DAKOTA
NATIONAL WEATHER SERVICE SIOUX FALLS SD
1000 PM CDT MON MAY 04 2015

NOTE: "FAIR" INDICATES FEW OR NO CLOUDS BELOW 12,000 FEET WITH NO
SIGNIFICANT WEATHER AND/OR OBSTRUCTIONS TO VISIBILITY.


SDZ001>005-009-010-012>017-050400-
NORTHWEST AND NORTH CENTRAL SOUTH DAKOTA

CITY           SKY/WX    TMP DP  RH WIND       PRES   REMARKS
BUFFALO          N/A     50  31  48 SE13      30.01S
FAITH            N/A     52  30  43 SE13      30.10S
MOBRIDGE       CLOUDY    60  24  25 E10       30.10S
$$

SDZ012>016-024>037-041>051-057-063-072>074-050400-
SOUTHWEST AND SOUTH CENTRAL SOUTH DAKOTA

CITY           SKY/WX    TMP DP  RH WIND       PRES   REMARKS
RAPID CTY ARPT CLOUDY    52  39  61 S6        30.11R
PIERRE         MOCLDY    57  23  26 E10       30.09R
CUSTER         CLOUDY    44  30  57 SE6       30.13R
ELLSWORTH AFB  CLOUDY    52  39  61 S8        30.10R
PHILIP         CLEAR     49  23  36 E6        30.10R
PINE RIDGE     MOCLDY    48  34  58 NE6       30.10R
WINNER         CLOUDY    60  30  32 E6        30.11R
$$

SDZ004>011-016>023-039-040-050400-
NORTHEAST SOUTH DAKOTA

CITY           SKY/WX    TMP DP  RH WIND       PRES   REMARKS
ABERDEEN       PTCLDY    59  28  30 E9        30.14R
WATERTOWN      PTCLDY    59  27  29 E8        30.16R
BROOKINGS      CLOUDY    63  27  25 E9        30.16R
SISSETON         N/A     55  27  34 E7        30.16R
$$

SDZ017-020-022-023-036>040-048>070-050400-
SOUTHEAST SOUTH DAKOTA

CITY           SKY/WX    TMP DP  RH WIND       PRES   REMARKS
SIOUX FALLS    CLOUDY    58  30  34 E9        30.13R
HURON          MOCLDY    56  30  37 NE7       30.12R
MITCHELL       CLOUDY    58  31  35 E9        30.11R
YANKTON        CLOUDY    57  45  62 S3        30.11S
$$

ABBREVIATIONS USED IN REMARKS
   TC - TEMPERATURE IN CELSIUS
  WCI - WIND CHILL INDEX
   HX - HEAT INDEX
  VSB - VISIBILITY



USA.gov is the U.S. government's official web portal to all federal, state and local government web resources and services.